This demonstration page uses our WeatherBlox Daily Observations layout. Learn more.

Left ArrowRight Arrow

41.55636, -103.73856

Hourly Observations for December 9, 2018

Temp ( °F °C ) Dew Point ( °F °C ) Humidity (%) Winds ( mph kmh ) Pressure ( in mb ) Visibility ( mi km ) Precip ( " mm )
5:58 pm 17:58 Partly Cloudy 32 0.1 22 -5.4 67 67 NW 9 15 30.36 1028 10 16 N/A
6:58 pm 18:58 Clear 33 0.3 22 -5.7 64 64 NW 15 24 30.38 1029 10 16 N/A
7:58 pm 19:58 Clear 31 -0.3 21 -6 66 66 WNW 18 30 30.39 1029 10 16 N/A
8:58 pm 20:58 Clear 27 -3 20 -6.8 75 75 NW 13 20 30.40 1029 10 16 N/A
9:58 pm 21:58 Clear 26 -3.6 19 -7.1 77 77 WNW 15 24 30.40 1029 10 16 N/A
10:58 pm 22:58 Clear 22 -5.4 17 -8.3 80 80 WNW 14 22 30.40 1029 10 16 N/A
11:58 pm 23:58 Clear 21 -6.2 16 -8.9 81 81 WNW 12 19 30.41 1030 10 16 N/A
12:58 am 00:58 Clear 24 -4.5 18 -7.7 79 79 WNW 14 22 30.39 1029 10 16 N/A
1:58 am 01:58 Clear 21 -5.9 16 -8.8 80 80 W 14 22 30.40 1030 10 16 N/A
2:58 am 02:58 Clear 19 -7 14 -9.9 80 80 W 13 20 30.43 1031 10 16 N/A
3:58 am 03:58 Clear 17 -8.3 14 -10.2 86 86 WNW 10 17 30.45 1031 10 16 N/A
4:58 am 04:58 Clear 20 -6.8 15 -9.6 81 81 W 13 20 30.46 1031 10 16 N/A
5:58 am 05:58 Clear 20 -6.9 15 -9.7 81 81 W 15 24 30.48 1032 10 16 N/A
6:58 am 06:58 Clear 19 -7.3 13 -10.5 78 78 W 13 20 30.49 1032 10 16 N/A
7:58 am 07:58 Sunny 20 -6.8 14 -9.8 79 79 W 15 24 30.50 1033 10 16 N/A
8:58 am 08:58 Sunny 24 -4.4 16 -8.7 72 72 WNW 14 22 30.53 1034 10 16 N/A
9:58 am 09:58 Sunny 29 -1.5 20 -6.5 69 69 NW 13 20 30.50 1033 10 16 N/A
10:58 am 10:58 Sunny 32 0.2 19 -7.3 57 57 NW 15 24 30.51 1033 10 16 N/A
11:58 am 11:58 Sunny 34 1.1 19 -7.2 54 54 NW 17 28 30.49 1032 10 16 N/A
12:58 pm 12:58 Sunny 35 1.4 17 -8.1 50 50 NW 21 33 30.45 1031 10 16 N/A
1:58 pm 13:58 Sunny 34 1.2 18 -7.8 52 52 NW 18 30 30.44 1031 10 16 N/A
2:58 pm 14:58 Sunny 33 0.8 19 -7.3 55 55 NW 18 30 30.46 1031 10 16 N/A
3:58 pm 15:58 Sunny 30 -0.9 18 -7.7 60 60 WNW 20 31 30.49 1032 10 16 N/A
4:58 pm 16:58 Clear 28 -2.5 17 -8.6 63 63 WNW 17 28 30.47 1032 10 16 N/A

Powered by AerisWeather